This demonstration page uses our WeatherBlox Daily Observations layout. Learn more.

41.86663, -103.66717

Hourly Observations for January 12, 2020

Temp ( °F °C ) Dew Point ( °F °C ) Humidity (%) Winds ( mph kmh ) Pressure ( in mb ) Visibility ( mi km ) Precip ( " mm )
12:53 am 00:53 Clear 18 -7.8 15 -9.4 88 88 E 3 6 29.86 1011 10 16.0934 0 0
1:53 am 01:53 Clear 17 -8.3 13 -10.6 84 84 NNE 3 6 29.85 1011 10 16.0934 0 0
2:53 am 02:53 Clear 16 -8.9 11 -11.7 80 80 Calm 29.85 1011 10 16.0934 0 0
3:53 am 03:53 Clear 15 -9.4 11 -11.7 84 84 Calm 29.87 1011 10 16.0934 0 0
4:53 am 04:53 Clear 13 -10.6 10 -12.2 88 88 E 5 7 29.9 1013 10 16.0934 0 0
5:53 am 05:53 Clear 14 -10 11 -11.7 88 88 NE 3 6 29.91 1013 10 16.0934 0 0
6:53 am 06:53 Clear 16 -8.9 11 -11.7 80 80 NNW 5 7 29.92 1013 10 16.0934 0 0
7:53 am 07:53 Sunny 18 -7.8 12 -11.1 77 77 Calm 29.92 1013 10 16.0934 0 0
8:53 am 08:53 Sunny 28 -2.2 21 -6.1 75 75 NW 5 7 29.91 1013 10 16.0934 0 0
9:53 am 09:53 Sunny 34 1.1 21 -6.1 59 59 WNW 9 15 29.92 1013 10 16.0934 0 0
10:53 am 10:53 Sunny 39 3.9 20 -6.7 46 46 WNW 14 22 29.9 1013 10 16.0934 0 0
11:53 am 11:53 Sunny 44 6.7 17 -8.3 34 34 W 15 24 29.87 1011 10 16.0934 0 0
12:53 pm 12:53 Sunny 45 7.2 16 -8.9 31 31 WNW 18 30 29.84 1011 10 16.0934 0 0
1:53 pm 13:53 Sunny 45 7.2 14 -10 29 29 W 18 30 29.85 1011 10 16.0934 0 0
2:53 pm 14:53 Sunny 44 6.7 12 -11.1 27 27 WNW 22 35 29.86 1011 10 16.0934 0 0
3:53 pm 15:53 Sunny 40 4.4 14 -10 35 35 W 20 31 29.9 1013 10 16.0934 0 0
4:53 pm 16:53 Clear 34 1.1 15 -9.4 46 46 W 6 9 29.94 1014 10 16.0934 0 0
5:53 pm 17:53 Clear 29 -1.7 15 -9.4 56 56 E 3 6 29.97 1015 10 16.0934 0 0
6:53 pm 18:53 Mostly Clear 31 -0.6 15 -9.4 52 52 W 6 9 29.96 1015 10 16.0934 0 0
7:53 pm 19:53 Cloudy 31 -0.6 17 -8.3 56 56 NNW 9 15 29.94 1014 10 16.0934 0 0
8:53 pm 20:53 Clear 31 -0.6 17 -8.3 56 56 WSW 7 11 29.93 1013 10 16.0934 0 0
9:53 pm 21:53 Clear 32 0 17 -8.3 54 54 W 10 17 29.91 1013 10 16.0934 0 0
10:53 pm 22:53 Clear 29 -1.7 16 -8.9 58 58 WNW 13 20 29.91 1013 10 16.0934 0 0
11:53 pm 23:53 Clear 24 -4.4 15 -9.4 68 68 N 5 7 29.91 1013 10 16.0934 0 0

Powered by AerisWeather